TimeEST,TemperatureF,Dew PointF,Humidity,Sea Level PressureIn,VisibilityMPH,Wind Direction,Wind SpeedMPH,Gust SpeedMPH,PrecipitationIn,Events,Conditions,WindDirDegrees,DateUTC
12:15 AM,41.2,40.5,97,29.85,10.0,ENE,3.5,-,0.01,Rain,Light Rain,70,2013-02-13 05:15:00
12:35 AM,41.4,40.1,95,29.84,10.0,Calm,Calm,-,0.01,,Overcast,0,2013-02-13 05:35:00
12:55 AM,41.7,39.9,93,29.83,7.0,Calm,Calm,-,0.01,,Drizzle,0,2013-02-13 05:55:00
1:15 AM,41.4,40.6,97,29.83,7.0,Calm,Calm,-,0.01,Rain,Rain,0,2013-02-13 06:15:00
1:35 AM,41.2,40.5,97,29.82,7.0,Calm,Calm,-,0.01,,Drizzle,0,2013-02-13 06:35:00
1:55 AM,41.5,40.6,97,29.80,10.0,Calm,Calm,-,0.01,,Overcast,0,2013-02-13 06:55:00
2:15 AM,41.5,40.6,97,29.80,10.0,Calm,Calm,-,N/A,,Overcast,0,2013-02-13 07:15:00
2:35 AM,41.5,40.6,97,29.78,10.0,Calm,Calm,-,N/A,,Overcast,0,2013-02-13 07:35:00
2:55 AM,41.9,41.0,97,29.77,10.0,Calm,Calm,-,0.01,Rain,Light Rain,0,2013-02-13 07:55:00
3:15 AM,41.5,41.0,98,29.77,10.0,Calm,Calm,-,N/A,Rain,Light Rain,0,2013-02-13 08:15:00
3:35 AM,41.7,41.0,97,29.76,10.0,Calm,Calm,-,N/A,,Overcast,0,2013-02-13 08:35:00
3:55 AM,41.5,41.2,99,29.77,5.0,West,3.5,-,N/A,Rain,Light Rain,260,2013-02-13 08:55:00
4:15 AM,41.4,41.0,99,29.76,7.0,Calm,Calm,-,N/A,,Light Drizzle,0,2013-02-13 09:15:00
4:35 AM,41.4,41.0,99,29.75,10.0,Calm,Calm,-,N/A,,Overcast,0,2013-02-13 09:35:00
4:55 AM,41.5,40.8,97,29.74,10.0,Calm,Calm,-,N/A,,Overcast,0,2013-02-13 09:55:00
5:15 AM,41.5,41.0,98,29.72,10.0,Calm,Calm,-,N/A,,Overcast,0,2013-02-13 10:15:00
5:35 AM,41.5,41.0,98,29.72,10.0,Calm,Calm,-,N/A,,Overcast,0,2013-02-13 10:35:00
5:55 AM,41.9,41.0,97,29.70,10.0,Calm,Calm,-,N/A,,Overcast,0,2013-02-13 10:55:00
6:15 AM,41.5,41.0,98,29.70,10.0,Calm,Calm,-,N/A,,Overcast,0,2013-02-13 11:15:00
6:35 AM,41.5,41.0,98,29.70,10.0,Calm,Calm,-,N/A,Rain,Light Rain,0,2013-02-13 11:35:00
6:55 AM,41.9,41.2,97,29.71,10.0,Calm,Calm,-,N/A,,Overcast,0,2013-02-13 11:55:00
7:15 AM,41.9,41.2,97,29.72,10.0,Calm,Calm,-,N/A,,Overcast,0,2013-02-13 12:15:00
7:35 AM,41.9,41.0,97,29.70,10.0,Calm,Calm,-,N/A,,Overcast,0,2013-02-13 12:35:00
7:55 AM,41.9,41.4,98,29.71,10.0,Calm,Calm,-,N/A,,Overcast,0,2013-02-13 12:55:00
8:15 AM,42.3,41.4,97,29.70,10.0,Calm,Calm,-,N/A,,Overcast,0,2013-02-13 13:15:00
8:35 AM,42.3,41.4,97,29.71,10.0,Calm,Calm,-,N/A,,Overcast,0,2013-02-13 13:35:00
8:55 AM,42.3,41.4,97,29.72,4.0,Calm,Calm,-,N/A,,Overcast,0,2013-02-13 13:55:00
9:15 AM,42.8,41.7,96,29.72,4.0,Calm,Calm,-,N/A,,Overcast,0,2013-02-13 14:15:00
9:35 AM,42.8,41.9,97,29.72,3.0,Calm,Calm,-,N/A,,Overcast,0,2013-02-13 14:35:00
9:55 AM,43.0,42.3,97,29.72,4.0,Calm,Calm,-,N/A,,Overcast,0,2013-02-13 14:55:00
10:15 AM,43.9,43.2,97,29.71,5.0,Calm,Calm,-,N/A,,Overcast,0,2013-02-13 15:15:00
10:35 AM,45.9,44.6,95,29.71,10.0,West,9.2,-,N/A,,Overcast,260,2013-02-13 15:35:00
10:55 AM,46.0,44.8,95,29.72,10.0,West,11.5,-,N/A,,Overcast,270,2013-02-13 15:55:00
11:15 AM,46.0,44.2,93,29.72,10.0,West,10.4,-,N/A,,Overcast,280,2013-02-13 16:15:00
11:35 AM,45.9,44.4,95,29.73,4.0,West,9.2,-,N/A,,Light Drizzle,260,2013-02-13 16:35:00
11:55 AM,47.1,44.4,90,29.72,10.0,WSW,10.4,-,N/A,,Overcast,250,2013-02-13 16:55:00
12:15 PM,47.3,43.5,87,29.72,10.0,WSW,12.7,20.7,N/A,,Overcast,240,2013-02-13 17:15:00
12:35 PM,48.2,43.7,84,29.71,10.0,SW,13.8,20.7,N/A,,Overcast,230,2013-02-13 17:35:00
12:55 PM,47.7,42.8,83,29.71,10.0,SW,11.5,16.1,N/A,,Overcast,230,2013-02-13 17:55:00
1:15 PM,47.5,41.5,80,29.71,10.0,WSW,12.7,18.4,N/A,,Overcast,240,2013-02-13 18:15:00
1:35 PM,47.3,42.1,82,29.72,10.0,WSW,11.5,17.3,N/A,,Overcast,250,2013-02-13 18:35:00
1:55 PM,46.9,40.6,79,29.72,10.0,WSW,11.5,23.0,N/A,,Overcast,250,2013-02-13 18:55:00
2:15 PM,46.4,41.0,81,29.72,10.0,West,11.5,-,N/A,,Overcast,260,2013-02-13 19:15:00
2:35 PM,45.1,40.5,84,29.73,10.0,West,16.1,21.9,N/A,,Drizzle,270,2013-02-13 19:35:00
2:55 PM,44.1,39.7,85,29.74,10.0,WSW,13.8,23.0,N/A,,Overcast,240,2013-02-13 19:55:00
3:15 PM,43.7,39.9,87,29.74,5.0,SW,12.7,18.4,N/A,Rain,Light Rain,230,2013-02-13 20:15:00
3:35 PM,43.7,40.6,89,29.74,10.0,SSW,9.2,-,N/A,,Overcast,210,2013-02-13 20:35:00
3:55 PM,43.2,39.2,86,29.76,10.0,SSW,9.2,-,N/A,,Overcast,210,2013-02-13 20:55:00
4:15 PM,43.0,38.7,85,29.77,10.0,WSW,4.6,-,N/A,,Light Drizzle,250,2013-02-13 21:15:00
4:35 PM,42.8,38.7,85,29.78,10.0,Calm,Calm,-,N/A,,Overcast,0,2013-02-13 21:35:00
4:55 PM,42.8,38.5,85,29.78,10.0,WSW,8.1,-,N/A,,Overcast,250,2013-02-13 21:55:00
5:15 PM,42.1,36.0,79,29.80,10.0,WSW,12.7,-,N/A,,Overcast,250,2013-02-13 22:15:00
5:35 PM,41.4,35.2,79,29.81,10.0,West,10.4,-,N/A,,Overcast,270,2013-02-13 22:35:00
5:55 PM,41.0,35.1,79,29.82,10.0,SW,8.1,-,N/A,,Overcast,230,2013-02-13 22:55:00
6:15 PM,41.0,34.2,77,29.84,10.0,West,4.6,-,N/A,,Overcast,260,2013-02-13 23:15:00
6:35 PM,40.6,33.4,75,29.84,10.0,Calm,Calm,-,N/A,,Overcast,0,2013-02-13 23:35:00
6:55 PM,38.8,34.2,83,29.86,10.0,Calm,Calm,-,N/A,,Overcast,0,2013-02-13 23:55:00
7:15 PM,36.5,34.7,93,29.87,10.0,NW,3.5,-,N/A,,Overcast,320,2013-02-14 00:15:00
7:35 PM,37.8,33.1,83,29.88,10.0,Calm,Calm,-,N/A,,Overcast,0,2013-02-14 00:35:00
7:55 PM,36.7,34.2,91,29.88,10.0,Calm,Calm,-,N/A,,Overcast,0,2013-02-14 00:55:00
8:15 PM,37.2,32.5,83,29.88,10.0,ENE,3.5,-,N/A,,Mostly Cloudy,60,2013-02-14 01:15:00
8:35 PM,34.9,32.0,89,29.89,10.0,ENE,4.6,-,N/A,,Mostly Cloudy,60,2013-02-14 01:35:00
8:55 PM,36.0,32.0,86,29.90,10.0,North,5.8,-,N/A,,Overcast,10,2013-02-14 01:55:00
9:15 PM,34.2,32.0,92,29.90,10.0,NNE,3.5,-,N/A,,Scattered Clouds,20,2013-02-14 02:15:00
9:35 PM,33.6,31.6,92,29.91,10.0,Calm,Calm,-,N/A,,Scattered Clouds,0,2013-02-14 02:35:00
9:55 PM,33.4,31.8,94,29.92,10.0,Calm,Calm,-,N/A,,Mostly Cloudy,0,2013-02-14 02:55:00
10:15 PM,33.3,32.0,95,29.92,10.0,Calm,Calm,-,N/A,,Mostly Cloudy,0,2013-02-14 03:15:00
10:35 PM,32.9,32.0,96,29.92,10.0,Calm,Calm,-,N/A,,Overcast,0,2013-02-14 03:35:00
10:55 PM,32.9,32.0,96,29.92,10.0,Calm,Calm,-,N/A,,Overcast,0,2013-02-14 03:55:00
11:15 PM,32.9,32.0,96,29.94,7.0,Calm,Calm,-,N/A,,Overcast,0,2013-02-14 04:15:00
11:35 PM,33.3,32.2,96,29.94,7.0,Calm,Calm,-,N/A,,Overcast,0,2013-02-14 04:35:00
11:55 PM,33.8,32.4,94,29.95,10.0,Calm,Calm,-,N/A,,Overcast,0,2013-02-14 04:55:00